Вернуться в каталог

M-5 DEB

АктивенHEO
NORAD 27489·DEBRIS·🇯🇵 Japan

Запущен Feb 12, 1997 с Uchinoura Space Center

Loading…

Ближайшие Пролёты (ближайшие 24 часа)

TLE

СвежийSource: Space-Track

Эпоха: Sep 12, 2026, 15:41 UTC

1 27489U 97005G   26255.65400696  .00015100  00000-0  10360-2 0  9996
2 27489  31.4360 105.8400 4497735 131.2661 327.2094  6.54145614121586

Отслеживайте M-5 DEB в реальном времени с AllMySat

Download on the App Store